{"data":{"norad_id":56721,"epoch":"2026-05-25T04:14:53.937024Z","epoch_age_seconds":49740,"freshness":"FRESH","line1":"1 56721U 23068M   26145.17701316  .00000068  00000+0  14459-3 0  9993","line2":"2 56721  87.9097 233.3636 0001826 109.4607 250.6721 13.16593760148684","mean_motion":13.1659376,"eccentricity":0.0001826,"inclination_deg":87.9097,"raan_deg":233.3636,"arg_perigee_deg":109.4607,"mean_anomaly_deg":250.6721,"bstar":0.00014459,"rev_number":14868,"period_min":109.37314483398,"perigee_km":1196.3752151077,"apogee_km":1199.1419321711,"semimajor_km":7575.8955736394,"source":"CELESTRAK","updated_at":"2026-05-25T13:38:22.745833Z"}}